P/2024 T2 ( Rankin )

Japanese version
Home page
Updated on January 10, 2025

---------------------------------------------------------------------

* Profile

Discovery Date October 4, 2024
Magnitude 21.1 mag
Discoverer David Rankin (Mt. Lemmon Survey)

* Pictures

* Orbital Elements

Epoch 2024 Oct. 17.0 TT = JDT 2460600.5
T 2024 Dec. 8.29127 TT                                  Rudenko
q   1.9728212            (2000.0)            P               Q
n   0.06385067     Peri.  343.79752     -0.12616940     -0.97042458
a   6.1995346      Node   113.07517     +0.93317649     -0.18648900
e   0.6817791      Incl.   12.92690     +0.33654556     +0.15329055
P  15.4
From 66 observations 2024 Oct. 4-Nov. 14, mean residual 0".5.

* Magnitudes Graph

        m1 = 15.5 + 5 log d + 10.0 log r

---------------------------------------------------------------------

The orbital elements are published on M.P.E.C. 2024-V192.
The magnitudes graphs are made with Comet for Windows.

---------------------------------------------------------------------

Copyright(C) Seiichi Yoshida (comet@aerith.net). All rights reserved.